Regional Weather Roundup
Issued by NWS Grand Forks, ND

Home | Current Version | Previous Version | Graphics & Text | Print | Product List | Glossary On
Versions: 1 2 3 4 5 6 7 8 9 10 11 12 13 14 15 16 17 18 19 20 21 22 23 24 25 26 27 28 29 30 31 32 33 34 35 36 37 38 39 40 41 42 43 44 45 46 47 48 49 50
000
ASUS43 KFGF 251131
RWRFGF
PRAIRIE TO PINES  WEATHER ROUNDUP
NATIONAL WEATHER SERVICE EASTERN NORTH DAKOTA/GRAND FORKS ND
500 AM CST THU DEC 25 2014

 **SATELLITE DATA USED TO AUGMENT SKY COVER AT AUTOMATED STATIONS**
 *****  WEATHER ACROSS EASTERN NORTH DAKOTA  *****

CITY           SKY/WX    TMP DP  RH WIND       PRES   REMARKS
GRAND FORKS    CLOUDY    29  26  89 NW7       29.54R WCI  22
GRAND FRKS AFB PTCLDY    27  27 100 NW6       29.56R WCI  20
GRAND FRKS NWS   N/A     28 N/A N/A NW5         N/A  WCI  23
DEVILS LAKE    CLOUDY    21  16  79 W9        29.55R WCI  11
FARGO          CLOUDY    26  23  88 W6        29.56R WCI  19
WAHPETON ARPT  CLOUDY    30  27  86 SW6       29.58R WCI  24
$$

 ***** WEATHER ACROSS CENTRAL AND WESTERN NORTH DAKOTA  *****

CITY           SKY/WX    TMP DP  RH WIND       PRES   REMARKS
BISMARCK       MOCLDY    24  21  88 W6        29.60R WCI  17
MINOT          CLOUDY    28  23  81 NW16G24   29.58R WCI  16
JAMESTOWN      CLOUDY    24  21  88 NW10      29.55R WCI  14
MINOT AFB      CLOUDY    28  27  99 NW18      29.58R WCI  15
GARRISON         N/A     22  19  89 NW9       29.58R WCI  12
WILLISTON      CLOUDY    27  23  85 NW8       29.66R WCI  19
DICKINSON      CLOUDY    25  21  85 NW10      29.58R WCI  15
HETTINGER      CLOUDY    29  25  85 N6        29.58R WCI  23
$$

 *****  OTHER AIRPORT OBSERVATIONS IN OUR AREA  *****

CITY           SKY/WX    TMP DP  RH WIND       PRES   REMARKS
WALHALLA         N/A     28  28 100 NW8       29.53R WCI  20
GRAFTON AIRPOR NOT AVBL
VALLEY CITY AR MIX PCPN  25  25 100 NW15      29.56R WCI  12
CANDO          PTSUNNY   14  12  92 NW6       29.57R WCI   5
CAVALIER APRT  PTSUNNY   28  25  86 W8        29.52R WCI  20
GWINNER        MOSUNNY   30  30 100 CALM      29.58R
ROLLA          CLOUDY    23  23 100 NW13G18   29.54R WCI  11
 ***** THE ABOVE OBSERVATIONS ARE NON NWS ARE NOT QUALITY
       CONTROLLED AND MAY MIS-REPORT RAIN FOR SNOW...
$$

  *****  WEATHER ACROSS NORTHERN MINNESOTA  *****

CITY           SKY/WX    TMP DP  RH WIND       PRES   REMARKS
FLAG ISLAND    CLOUDY    28  27  93 W8        29.44R FOG     WCI  20
WARROAD        CLOUDY    28  25  86 W7        29.47R FOG     WCI  21
ROSEAU         CLOUDY    30  25  80 W5        29.48R
HALLOCK        CLOUDY    28  27  93 W7        29.51R WCI  21
THF RVR FALLS  CLOUDY    28  25  86 W9        29.52R WCI  20
BAUDETTE       CLOUDY    29  27  92 SW7       29.46R WCI  22
WASKISH        CLOUDY    30  28  93 SW8       29.48R WCI  23
CROOKSTON      CLOUDY    28  27  93 NW7       29.55R WCI  21
STEPHEN NDAWN    N/A     28  19  69 NW6         N/A  WCI  22
GREENBUSH NDAW   N/A     28  27  93 W7          N/A  WCI  21
$$
  *****  WEATHER ACROSS CENTRAL AND WEST MINNESOTA  *****

CITY           SKY/WX    TMP DP  RH WIND       PRES   REMARKS
FOSSTON        CLOUDY    27  25  93 W13       29.52R WCI  16
BEMIDJI        CLOUDY    29  27  92 W8        29.49R WCI  21
PARK RAPIDS    CLOUDY    29  27  92 SW10      29.50R WCI  20
ELBOW LAKE     CLOUDY    28  27  96 SW5       29.57R WCI  23
WADENA         CLOUDY    28  27  93 SW8       29.54R WCI  20
DETROIT LAKES  CLOUDY    30  30 100 SW8       29.54R WCI  23
MOORHEAD       CLOUDY    27  27 100 W5        29.57R WCI  21
FERGUS FALLS   CLOUDY    28  28 100 SW5       29.59R WCI  23
MORRIS MN      LGT SNOW  28  27  93 S6        29.57R WCI  22
STAPLES        CLOUDY    28  27  93 SW6       29.55R WCI  22
$$
  *****  WEATHER ELSEWHERE ACROSS MINNESOTA  *****

CITY           SKY/WX    TMP DP  RH WIND       PRES   REMARKS
DULUTH         CLOUDY    31  26  82 SW13      29.51R WCI  21
INTRNTL FALLS  CLOUDY    30  27  88 W8        29.46R WCI  22
ELY            CLOUDY    30  27  86 SW8       29.47S WCI  23
CLOQUET        CLOUDY    30  28  93 SW8       29.52S WCI  23
WHEATON        CLOUDY    28  27  93 SW3       29.60R
BRAINERD       CLOUDY    29  26  89 SW9       29.54R WCI  20
HIBBING        CLOUDY    31  26  82 VRB6      29.49S
ALEXANDRIA     CLOUDY    28  26  92 SW10      29.56R WCI  19
SAINT CLOUD    CLOUDY    32  26  78 S12       29.58R WCI  23
MINNEAPOLIS    CLOUDY    30  25  81 S8        29.63S WCI  22
$$

  *****  WEATHER ACROSS SOUTH DAKOTA  *****

CITY           SKY/WX    TMP DP  RH WIND       PRES   REMARKS
SIOUX FALLS    CLOUDY    28  24  85 S5        29.55S WCI  23
BROOKINGS      NOT AVBL
WATERTOWN      MIX PCPN  28  25  88 SW3       29.55R
HURON          CLOUDY    26  24  92 N3        29.55R
SISSETON         N/A     31  28  89 NW5       29.56R
ABERDEEN       CLOUDY    30  27  88 CALM      29.57R
MITCHELL       CLOUDY    28  25  88 E5        29.53R WCI  23
PIERRE         LGT SNOW  32  30  92 N14       29.53R FOG     WCI  22
MOBRIDGE       CLOUDY    34  28  79 N12       29.54R
RAPID CITY     LGT SNOW  31  30  96 N8        29.52R FOG     WCI  23
$$

  *****  SOME WEATHER IN NEARBY STATES *****

CITY           SKY/WX    TMP DP  RH WIND       PRES   REMARKS
GLASGOW MT     CLOUDY    27  20  75 N21       29.72R WCI  13
GREAT FALLS MT MIX PCPN  23  19  86 N6        29.78R WCI  16
CHEYENNE WY    MOCLDY    28  18  66 CALM      29.39F
SCOTTSBLUFF NE CLOUDY    36  28  73 NE7       29.42F
OMAHA NE       CLOUDY    31  28  89 S12       29.65F WCI  22
DES MOINES IA  PTCLDY    31  27  85 S12       29.73S WCI  22
DAVENPORT IA   CLOUDY    33  26  75 SW12      29.82R WCI  24
CHICAGO IL     CLOUDY    34  27  75 W17G26    29.80R WCI  23
EAU CLAIRE WI  CLOUDY    31  26  82 SW10      29.65R WCI  22
LA CROSSE WI   CLOUDY    32  26  78 SW12      29.72R WCI  23
$$

  *****  SOME NATIONAL WEATHER *****

CITY           SKY/WX    TMP DP  RH WIND       PRES   REMARKS
LA GUARDIA NY  LGT RAIN  57  47  69 W14G25    29.57R
RALEIGH NC     CLOUDY    55  46  71 W6        29.84R
ATLANTA GA     PTCLDY    41  34  76 W9        30.06R
NEW ORLEANS LA CLEAR     41  35  79 SW3       30.20R
OKLAHOMA CITY  PTCLDY    32  24  72 S14       29.81F WCI  22
ALBUQUERQUE NM MOCLDY    32  11  41 SE8       29.76F WCI  25
SALT LAKE CITY LGT SNOW  33  26  75 NW15G24   29.53S WCI  23
LOS ANGELES CA PTCLDY    57  36  45 N15G29    29.79F
BOISE ID       MOCLDY    31  25  78 NW15      29.76R WCI  20
SEATTLE WA     CLOUDY    41  39  93 SE6       30.11R
$$

*** WEATHER ACROSS MANITOBA...SASKATCHEWAN AND ONTARIO ***
                ***ONTARIO***

CITY           SKY/WX    TMP DP  RH WIND       PRES   REMARKS
GERALDTON      FLURRIES  23  21  93 NW6       29.41R WCI  16
THUNDER BAY    MOCLDY    27  27 100 NW2       29.48R
SIOUX LOOKOUT  FLURRIES  28  28 100 S2        29.41S
TORONTO        LGT RAIN  39  34  81 W22G30    29.52R
BIG TROUT LK   LGT SNOW  19  19 100 N3        29.48S
PICKLE LAKE    FLURRIES  21  19  93 CALM      29.43
DRYDEN         CLOUDY    28  27  93 SW10      29.41S WCI  19
KENORA         LGT SNOW  27  27 100 SW8       29.42R VSB 1   WCI  18
$$
                *** MANITOBA***

CITY           SKY/WX    TMP DP  RH WIND       PRES   REMARKS
BRANDON        CLOUDY    27  23  86 NW10G18   29.55R WCI  17
DAUPHIN        FLURRIES  23  21  93 NW12      29.60R WCI  12
ISLAND LAKE    FLURRIES  19  18  93 N5        29.49R WCI  13
PILOT MOUND      N/A     25  23  93 NW15        N/A  WCI  12
THE PAS        FLURRIES  21  19  93 NW9       29.64R WCI  11
THOMPSON       LGT SNOW  16  14  93 N2        29.58S
WINNIPEG       FLURRIES  25  23  93 NW18      29.49R WCI  11
CHURCHILL      LGT SNOW  16  16 100 SE2       29.65R
GILLAM         LGT SNOW  18  16  93 NE3       29.59R
$$
                ***SASKATCHEWAN***

CITY           SKY/WX    TMP DP  RH WIND       PRES   REMARKS
ESTEVAN        FLURRIES  25  21  86 NW15G22   29.62R WCI  12
KINDERSLEY     FLURRIES  12  10  92 N22       29.80R WCI  -7
LLOYDMINSTER   FLURRIES   7   5  92 NW10      29.85R WCI  -8
PRINCE ALBERT  FLURRIES  14   9  79 NW15G21   29.77R WCI  -1
REGINA         LGT SNOW  23  21  93 NW13      29.67  DRFTSNOWWCI  11
YORKTON        FLURRIES  23  19  86 NW10      29.60  WCI  12
N. BATTLEFORD  FLURRIES  12   9  85 NW15G22   29.85R WCI  -4
LA RONGE       CLOUDY     0  -4  85 NW15G23   29.82R WCI -20
SASKATOON      FLURRIES  16  12  86 NW12G18   29.78R WCI   3
SWIFT CURRENT  FLURRIES  19  18  93 NW21G26   29.72S WCI   3
$$
NOTE: THESE ARE AUTOMATED STATIONS WITH LIMITED QUALITY CONTROL
      "FAIR" INDICATES FEW OR NO CLOUDS BELOW 12,000 FEET WITH NO
      SIGNIFICANT WEATHER AND/OR OBSTRUCTIONS TO VISIBILITY.
      SKY/WX - SKY CONDITION AND SIGNIFICANT WEATHER.
      TMP - AIR TEMPERATURE.    DP   - DEWPOINT TEMPERATURE.
      RH  - RELATIVE HUMIDITY.  PRES - PRESSURE.
      HX  - HEAT INDEX.         WCI  - WIND CHILL INDEX.
$


USA.gov is the U.S. government's official web portal to all federal, state and local government web resources and services.